Вернуться в каталог

BREEZE-M DEB

TANK

АктивенHEO
NORAD 28359·DEBRIS·🇷🇺 Russia

Запущен Jun 16, 2004 с Baikonur Cosmodrome

Loading…

Ближайшие Пролёты (ближайшие 24 часа)

TLE

СвежийSource: Space-Track

Эпоха: Sep 13, 2026, 18:41 UTC

1 28359U 04022B   26256.77881667  .00005032  00000-0  53274-3 0  9990
2 28359  49.5185 181.0435 4482666 301.5056  22.3113  6.53231637498413

Отслеживайте BREEZE-M DEB в реальном времени с AllMySat

Download on the App Store